Beaufort, NC

5:37 PM EST on December 10, 2019 (GMT -0500)
Smith

Weather History for KMRH - October, 2019

Change the Weather History Date:

Wednesday, October 30, 2019

  Actual Average Record
Temperature  
Mean Temperature 74 °F -  
Max Temperature 79 °F 70 °F 83 °F (1971)
Min Temperature 69 °F 50 °F 33 °F (1976)
Cooling Degree Days 8    
Growing Degree Days 24 (Base 50)    
Moisture  
Dew Point 69 °F    
Average Humidity 88    
Maximum Humidity 96    
Minimum Humidity 74    
Precipitation  
Precipitation 0.00 in - - ()
Sea Level Pressure  
Sea Level Pressure 30.17 in    
Wind  
Wind Speed 6 mph (ENE)    
Max Wind Speed 10 mph    
Max Gust Speed -    
Visibility 10 miles    
Events      
Averages and records for this station are not official NWS values.
T = Trace of Precipitation, MM = Missing Value Source: NWS Daily Summary

Daily Weather History Graph

Daily Weather History Graph

Search for Another Location

Airport or City:

Astronomy

Oct. 30, 2019 Rise Set
Actual Time 7:25 AM EDT 6:14 PM EDT
Civil Twilight 6:59 AM EDT 6:40 PM EDT
Nautical Twilight 6:29 AM EDT 7:10 PM EDT
Astronomical Twilight 6:00 AM EDT 7:40 PM EDT
Moon 10:01 AM EDT (10/30) 8:26 PM EDT (10/30)
Length of Visible Light 11h 41m
Length of Day
10h 49m
Waxing Crescent, 8% of the Moon is Illuminated
Oct 30
Waxing Crescent
Nov 4
First Quarter
Nov 12
Full
Nov 19
Last Quarter
Nov 26
New

Hourly Weather History & Observations

Time (EDT) Temp. Dew Point Humidity Pressure Visibility Wind Dir Wind Speed Gust Speed Precip Events Conditions
12:58 AM 69.1 °F 68.0 °F 96% 30.20 in 10.0 mi NE 4.6 mph - N/A   Overcast
1:13 AM 69.1 °F 68.0 °F 96% 30.20 in 10.0 mi NE 6.9 mph - N/A   Mostly Cloudy
1:28 AM 69.1 °F 68.0 °F 96% 30.19 in 10.0 mi NE 5.8 mph - N/A   Mostly Cloudy
1:58 AM 69.1 °F 68.0 °F 96% 30.18 in 10.0 mi NE 5.8 mph - N/A   Mostly Cloudy
2:58 AM 69.1 °F 68.0 °F 96% 30.18 in 10.0 mi NE 3.5 mph - N/A   Mostly Cloudy
3:58 AM 69.1 °F 68.0 °F 96% 30.16 in 10.0 mi NE 4.6 mph - N/A   Clear
4:58 AM 69.1 °F 68.0 °F 96% 30.18 in 10.0 mi NNE 4.6 mph - N/A   Overcast
5:58 AM 69.1 °F 68.0 °F 96% 30.18 in 10.0 mi NE 4.6 mph - N/A   Clear
6:58 AM 69.1 °F 68.0 °F 96% 30.19 in 10.0 mi NNE 3.5 mph - N/A   Clear
7:58 AM 69.1 °F 68.0 °F 96% 30.20 in 10.0 mi NNE 3.5 mph - N/A   Clear
8:58 AM 71.1 °F 69.1 °F 93% 30.22 in 10.0 mi ENE 5.8 mph - N/A   Clear
9:58 AM 73.0 °F 70.0 °F 90% 30.22 in 10.0 mi East 6.9 mph - N/A   Clear
10:58 AM 75.9 °F 68.0 °F 76% 30.22 in 10.0 mi ENE 9.2 mph - N/A   Clear
11:58 AM 77.0 °F 68.0 °F 74% 30.20 in 10.0 mi ENE 8.1 mph - N/A   Mostly Cloudy
12:58 PM 78.1 °F 69.1 °F 74% 30.19 in 10.0 mi ESE 8.1 mph - N/A   Clear
1:58 PM 77.0 °F 68.0 °F 74% 30.16 in 10.0 mi East 10.4 mph - N/A   Clear
2:58 PM 77.0 °F 68.0 °F 74% 30.14 in 10.0 mi East 9.2 mph - N/A   Clear
3:58 PM 75.9 °F 69.1 °F 79% 30.15 in 10.0 mi East 8.1 mph - N/A   Clear
4:58 PM 73.9 °F 69.1 °F 85% 30.14 in 10.0 mi East 6.9 mph - N/A   Partly Cloudy
5:58 PM 73.9 °F 69.1 °F 85% 30.13 in 10.0 mi East 3.5 mph - N/A   Clear
6:58 PM 73.0 °F 69.1 °F 87% 30.14 in 10.0 mi Calm Calm - N/A   Clear
7:58 PM 73.9 °F 70.0 °F 87% 30.14 in 10.0 mi SE 5.8 mph - N/A   Clear
8:58 PM 75.0 °F 70.0 °F 84% 30.13 in 10.0 mi SE 6.9 mph - N/A   Clear
9:58 PM 75.0 °F 70.0 °F 84% 30.12 in 10.0 mi SSE 8.1 mph - N/A   Clear
10:58 PM 75.0 °F 71.1 °F 87% 30.12 in 10.0 mi SSE 6.9 mph - N/A   Clear
11:58 PM 75.0 °F 71.1 °F 87% 30.11 in 10.0 mi SSE 6.9 mph - N/A   Clear